contact:dominique.lefevre@mio.osupytheas.fr, maurice.libes@osupytheas.fr, didier.mallarino@osupytheas.fr
Project:EMSO http://www.emso-fr.org/EMSO-France
Depth: 2436.0 m
Title:EMSO Ligure Ouest : Data MII capteur AQUADOPP
Date,Latitude,Longitude,X_East,Y_North,Z_Up,Amplitude_X,Amplitude_Y,Amplitude_Z,Batterie,SoundSpeed,Heading,Pitch,Roll,Pressure,TIS,Speed,Direction
, degrees North, degrees East, m.s-1, m.s-1,m.s-1, 1, 1, 1, Volt, m.s-1, degree, degree, degree, dbar, degree_C, m.s-1, degree
2023-07-27T00:04:03,42.805,6.029,-0.03,0.012,-0.015,101.0,102.0,101.0,13.4,1505.2,327.3,-0.8,1.8,2471.49,13.29,0.032,291.8
2023-07-27T00:07:03,42.805,6.029,-0.026,0.038,-0.024,102.0,101.0,102.0,13.3,1505.2,347.2,-0.8,1.8,2471.48,13.29,0.046,325.6
2023-07-27T00:10:03,42.805,6.029,-0.026,0.02,-0.027,102.0,102.0,101.0,13.4,1505.2,329.8,-0.8,1.8,2471.445,13.29,0.032,307.6
2023-07-27T00:13:03,42.805,6.029,-0.038,0.02,-0.031,103.0,102.0,100.0,13.4,1505.2,325.7,-0.8,1.8,2471.491,13.29,0.042,297.8
2023-07-27T00:16:03,42.805,6.029,-0.02,0.028,-0.012,102.0,102.0,101.0,13.4,1505.2,326.8,-0.8,1.8,2471.429,13.29,0.034,324.5
2023-07-27T00:19:03,42.805,6.029,-0.032,0.026,-0.014,103.0,102.0,101.0,13.4,1505.2,349.9,-0.8,1.8,2471.44,13.29,0.041,309.1
2023-07-27T00:22:03,42.805,6.029,-0.001,0.007,-0.022,103.0,102.0,101.0,13.4,1505.2,338.2,-0.8,1.8,2471.456,13.29,0.007,351.9
2023-07-27T00:25:03,42.805,6.029,-0.018,0.024,-0.031,102.0,103.0,101.0,13.4,1505.2,338.0,-0.8,1.8,2471.433,13.29,0.03,323.1
2023-07-27T00:28:03,42.805,6.029,0.0,0.002,-0.044,102.0,102.0,100.0,13.4,1505.2,327.7,-0.8,1.8,2471.442,13.29,0.002,0.0
2023-07-27T00:31:03,42.805,6.029,-0.032,0.037,-0.016,101.0,102.0,100.0,13.3,1505.2,347.7,-0.8,1.8,2471.465,13.29,0.048,319.1
2023-07-27T00:34:03,42.805,6.029,-0.01,0.013,0.007,101.0,102.0,101.0,13.4,1505.2,352.8,-0.8,1.8,2471.415,13.29,0.016,322.4
2023-07-27T00:37:03,42.805,6.029,-0.032,0.005,-0.038,101.0,103.0,102.0,13.4,1505.2,335.0,-0.7,1.8,2471.405,13.29,0.032,278.9
2023-07-27T00:40:03,42.805,6.029,-0.009,0.027,-0.013,102.0,102.0,101.0,13.4,1505.2,346.5,-0.8,1.8,2471.451,13.29,0.028,341.6
2023-07-27T00:43:03,42.805,6.029,-0.015,0.0,-0.043,102.0,102.0,101.0,13.3,1505.2,337.8,-0.7,1.8,2471.445,13.29,0.015,270.0
2023-07-27T00:46:03,42.805,6.029,-0.019,0.029,-0.024,104.0,102.0,101.0,13.4,1505.2,331.6,-0.7,1.8,2471.418,13.29,0.034,326.8
2023-07-27T00:49:03,42.805,6.029,-0.011,0.029,-0.007,101.0,102.0,102.0,13.3,1505.2,337.5,-0.7,1.8,2471.457,13.29,0.031,339.2
2023-07-27T00:52:03,42.805,6.029,-0.025,0.018,0.013,103.0,102.0,100.0,13.4,1505.2,323.9,-0.8,1.8,2471.439,13.29,0.03,305.8
2023-07-27T00:55:03,42.805,6.029,-0.012,0.013,-0.033,102.0,102.0,101.0,13.4,1505.2,333.8,-0.8,1.8,2471.447,13.29,0.017,317.3
2023-07-27T00:58:03,42.805,6.029,-0.036,0.036,-0.031,101.0,103.0,101.0,13.4,1505.2,332.0,-0.7,1.9,2471.467,13.29,0.05,315.0
2023-07-27T01:04:03,42.805,6.029,0.005,0.004,-0.038,103.0,103.0,102.0,13.4,1505.2,351.8,-0.8,1.8,2471.488,13.29,0.006,51.3
2023-07-27T01:07:03,42.805,6.029,-0.014,0.011,-0.05,102.0,101.0,102.0,13.4,1505.2,323.1,-0.8,1.8,2471.476,13.29,0.017,308.2
2023-07-27T01:10:03,42.805,6.029,-0.005,0.025,0.016,100.0,101.0,102.0,13.4,1505.2,333.4,-0.8,1.9,2471.454,13.29,0.025,348.7
2023-07-27T01:13:03,42.805,6.029,-0.004,0.035,0.0,103.0,100.0,101.0,13.3,1505.2,351.8,-0.8,1.8,2471.426,13.29,0.035,353.5
2023-07-27T01:16:03,42.805,6.029,-0.026,0.021,-0.019,100.0,103.0,101.0,13.4,1505.2,334.6,-0.7,1.9,2471.441,13.29,0.033,308.9
2023-07-27T01:19:03,42.805,6.029,-0.027,0.018,-0.043,103.0,101.0,101.0,13.4,1505.2,336.0,-0.7,1.9,2471.434,13.29,0.032,303.7
2023-07-27T01:22:03,42.805,6.029,-0.021,0.008,-0.057,101.0,103.0,101.0,13.4,1505.2,353.0,-0.8,1.8,2471.462,13.29,0.022,290.9
2023-07-27T01:25:03,42.805,6.029,-0.009,0.021,-0.024,100.0,102.0,101.0,13.4,1505.2,333.8,-0.8,1.8,2471.443,13.29,0.022,336.8
2023-07-27T01:28:03,42.805,6.029,-0.034,0.023,-0.003,102.0,100.0,102.0,13.4,1505.2,325.7,-0.8,1.8,2471.453,13.29,0.041,304.1
2023-07-27T01:31:03,42.805,6.029,-0.001,0.008,-0.031,101.0,101.0,102.0,13.4,1505.2,334.7,-0.7,1.8,2471.447,13.29,0.008,352.9
2023-07-27T01:34:03,42.805,6.029,-0.023,0.014,-0.036,102.0,101.0,102.0,13.4,1505.2,351.5,-0.8,1.8,2471.435,13.29,0.026,301.3
2023-07-27T01:37:03,42.805,6.029,-0.007,0.02,-0.04,101.0,102.0,101.0,13.4,1505.2,326.0,-0.8,1.8,2471.459,13.29,0.021,340.7
2023-07-27T01:40:03,42.805,6.029,0.003,0.017,-0.026,101.0,102.0,101.0,13.3,1505.2,342.6,-0.8,1.8,2471.428,13.29,0.017,10.0
2023-07-27T01:43:03,42.805,6.029,-0.01,0.008,-0.038,103.0,103.0,99.0,13.4,1505.2,331.0,-0.8,1.8,2471.435,13.29,0.012,308.7
2023-07-27T01:46:03,42.805,6.029,0.024,0.011,0.0,103.0,101.0,101.0,13.3,1505.2,337.5,-0.7,1.8,2471.467,13.29,0.026,65.4
2023-07-27T01:49:03,42.805,6.029,0.012,0.033,0.025,102.0,102.0,100.0,13.4,1505.2,333.4,-0.7,1.8,2471.457,13.29,0.035,20.0
2023-07-27T01:52:03,42.805,6.029,-0.016,0.01,-0.017,102.0,102.0,101.0,13.4,1505.2,331.2,-0.8,1.8,2471.416,13.29,0.018,302.0
2023-07-27T01:55:03,42.805,6.029,0.015,-0.003,-0.02,100.0,103.0,101.0,13.4,1505.2,345.9,-0.8,1.8,2471.429,13.29,0.015,101.3
2023-07-27T01:58:03,42.805,6.029,-0.02,0.014,-0.027,101.0,102.0,101.0,13.4,1505.2,341.9,-0.8,1.8,2471.371,13.29,0.024,305.0
2023-07-27T02:04:03,42.805,6.029,-0.007,0.03,-0.013,102.0,101.0,101.0,13.4,1505.2,352.4,-0.8,1.8,2471.44,13.29,0.03,346.9
2023-07-27T02:07:03,42.805,6.029,-0.03,0.013,-0.023,103.0,102.0,101.0,13.4,1505.2,344.2,-0.8,1.8,2471.49,13.29,0.032,293.4
2023-07-27T02:10:03,42.805,6.029,-0.021,0.013,-0.057,101.0,104.0,101.0,13.4,1505.2,328.2,-0.8,1.8,2471.488,13.29,0.024,301.8
2023-07-27T02:13:03,42.805,6.029,0.007,0.027,0.023,105.0,100.0,101.0,13.4,1505.2,340.8,-0.8,1.8,2471.425,13.29,0.027,14.5
2023-07-27T02:16:03,42.805,6.029,0.011,0.01,-0.02,101.0,101.0,101.0,13.4,1505.2,334.8,-0.8,1.8,2471.476,13.29,0.014,47.7
2023-07-27T02:19:03,42.805,6.029,-0.005,0.012,-0.018,103.0,101.0,101.0,13.4,1505.2,329.8,-0.8,1.8,2471.453,13.29,0.013,337.4
2023-07-27T02:22:03,42.805,6.029,-0.011,0.024,-0.009,102.0,102.0,100.0,13.4,1505.2,353.0,-0.7,1.8,2471.448,13.29,0.026,335.4
2023-07-27T02:25:03,42.805,6.029,-0.016,-0.005,-0.047,102.0,102.0,101.0,13.3,1505.2,328.0,-0.8,1.8,2471.447,13.29,0.016,252.6
2023-07-27T02:28:03,42.805,6.029,0.0,0.0,-0.049,102.0,103.0,99.0,13.4,1505.2,338.0,-0.8,1.8,2471.422,13.29,0.0,0.0
2023-07-27T02:31:03,42.805,6.029,-0.002,0.008,-0.031,102.0,101.0,102.0,13.4,1505.2,348.9,-0.7,1.8,2471.468,13.29,0.008,346.0
2023-07-27T02:34:03,42.805,6.029,0.0,0.012,-0.041,101.0,101.0,101.0,13.3,1505.2,326.6,-0.8,1.8,2471.467,13.29,0.012,0.0
2023-07-27T02:37:03,42.805,6.029,0.012,-0.003,-0.011,103.0,102.0,101.0,13.4,1505.2,324.6,-0.8,1.8,2471.454,13.29,0.012,104.0
2023-07-27T02:40:03,42.805,6.029,-0.013,0.007,-0.033,101.0,106.0,101.0,13.3,1505.2,337.4,-0.8,1.8,2471.452,13.29,0.014,298.3
2023-07-27T02:43:03,42.805,6.029,0.001,0.015,0.004,101.0,102.0,101.0,13.4,1505.2,353.5,-0.8,1.8,2471.405,13.29,0.015,3.8
2023-07-27T02:46:03,42.805,6.029,-0.001,0.009,-0.011,102.0,101.0,102.0,13.4,1505.2,337.7,-0.8,1.8,2471.413,13.29,0.009,353.7
2023-07-27T02:49:03,42.805,6.029,0.01,0.018,-0.01,101.0,101.0,101.0,13.4,1505.2,354.0,-0.8,1.8,2471.433,13.29,0.02,29.1
2023-07-27T02:52:03,42.805,6.029,-0.001,0.01,0.009,102.0,102.0,101.0,13.3,1505.2,336.8,-0.8,1.8,2471.416,13.29,0.01,354.3
2023-07-27T02:55:03,42.805,6.029,-0.008,0.011,0.02,103.0,101.0,100.0,13.4,1505.2,325.3,-0.8,1.8,2471.451,13.29,0.013,324.0
2023-07-27T02:58:03,42.805,6.029,-0.024,-0.003,-0.051,102.0,102.0,101.0,13.4,1505.2,330.9,-0.7,1.8,2471.39,13.29,0.024,262.9
2023-07-27T03:04:03,42.805,6.029,-0.002,0.029,-0.001,101.0,102.0,101.0,13.4,1505.2,337.5,-0.8,1.8,2471.466,13.29,0.029,356.1
2023-07-27T03:07:03,42.805,6.029,0.001,0.01,-0.028,99.0,102.0,102.0,13.4,1505.2,326.5,-0.8,1.8,2471.442,13.29,0.01,5.7
2023-07-27T03:10:03,42.805,6.029,0.009,0.001,-0.064,102.0,102.0,101.0,13.3,1505.2,344.2,-0.8,1.8,2471.469,13.29,0.009,83.7
2023-07-27T03:13:03,42.805,6.029,0.0,-0.013,-0.025,103.0,100.0,102.0,13.3,1505.2,350.3,-0.7,1.8,2471.426,13.29,0.013,180.0
2023-07-27T03:16:03,42.805,6.029,-0.003,0.028,-0.032,101.0,102.0,100.0,13.4,1505.2,344.2,-0.8,1.8,2471.426,13.29,0.028,353.9
2023-07-27T03:19:03,42.805,6.029,0.0,0.007,-0.037,101.0,101.0,102.0,13.4,1505.2,337.7,-0.7,1.8,2471.452,13.29,0.007,0.0
2023-07-27T03:22:03,42.805,6.029,-0.01,-0.002,-0.01,100.0,103.0,102.0,13.3,1505.2,325.4,-0.8,1.8,2471.431,13.29,0.01,258.7
2023-07-27T03:25:03,42.805,6.029,-0.005,0.004,-0.03,102.0,104.0,101.0,13.4,1505.2,323.8,-0.7,1.8,2471.442,13.29,0.006,308.7
2023-07-27T03:28:03,42.805,6.029,0.007,0.007,-0.032,100.0,102.0,102.0,13.4,1505.2,335.4,-0.8,1.8,2471.421,13.29,0.009,45.0
2023-07-27T03:31:03,42.805,6.029,0.01,0.009,-0.004,103.0,99.0,100.0,13.3,1505.2,331.8,-0.8,1.8,2471.402,13.29,0.013,48.0
2023-07-27T03:34:03,42.805,6.029,-0.008,-0.016,-0.031,103.0,102.0,101.0,13.4,1505.2,338.3,-0.8,1.8,2471.378,13.29,0.017,206.6
2023-07-27T03:37:03,42.805,6.029,0.0,0.0,-0.015,103.0,102.0,101.0,13.3,1505.2,336.8,-0.8,1.8,2471.41,13.3,0.0,0.0
2023-07-27T03:40:03,42.805,6.029,0.005,0.007,-0.017,102.0,102.0,101.0,13.4,1505.2,332.0,-0.8,1.8,2471.403,13.3,0.008,35.5
2023-07-27T03:43:03,42.805,6.029,0.016,-0.023,-0.053,102.0,102.0,100.0,13.4,1505.2,322.9,-0.7,1.8,2471.368,13.3,0.028,145.2
2023-07-27T03:46:03,42.805,6.029,0.012,0.011,-0.015,103.0,101.0,101.0,13.4,1505.2,343.9,-0.8,1.8,2471.366,13.29,0.016,47.5
2023-07-27T03:49:03,42.805,6.029,0.009,0.014,-0.009,102.0,102.0,102.0,13.4,1505.2,341.9,-0.8,1.8,2471.377,13.29,0.016,32.7
2023-07-27T03:52:03,42.805,6.029,-0.01,0.009,-0.012,102.0,102.0,101.0,13.3,1505.2,339.5,-0.8,1.8,2471.404,13.29,0.013,312.0
2023-07-27T03:55:03,42.805,6.029,-0.003,0.019,0.013,102.0,102.0,100.0,13.3,1505.2,338.3,-0.7,1.8,2471.443,13.29,0.019,351.0
2023-07-27T03:58:03,42.805,6.029,0.016,-0.002,-0.009,103.0,101.0,102.0,13.3,1505.2,353.1,-0.8,1.8,2471.402,13.29,0.016,97.1
2023-07-27T04:04:03,42.805,6.029,-0.021,0.017,-0.03,102.0,102.0,101.0,13.4,1505.2,325.7,-0.7,1.8,2471.435,13.29,0.027,309.0
2023-07-27T04:07:03,42.805,6.029,-0.031,0.022,-0.031,102.0,102.0,100.0,13.3,1505.2,345.2,-0.7,1.8,2471.4,13.29,0.038,305.4
2023-07-27T04:10:03,42.805,6.029,0.023,0.006,0.004,102.0,102.0,101.0,13.4,1505.2,351.3,-0.7,1.8,2471.44,13.29,0.023,75.4
2023-07-27T04:13:03,42.805,6.029,-0.024,0.022,-0.012,101.0,101.0,101.0,13.4,1505.2,341.9,-0.8,1.8,2471.389,13.29,0.032,312.5
2023-07-27T04:16:03,42.805,6.029,0.015,-0.004,-0.013,102.0,102.0,102.0,13.3,1505.2,347.3,-0.7,1.9,2471.4,13.29,0.015,104.9
2023-07-27T04:19:03,42.805,6.029,0.004,0.0,-0.041,102.0,102.0,101.0,13.3,1505.2,333.4,-0.8,1.8,2471.455,13.29,0.004,90.0
2023-07-27T04:22:03,42.805,6.029,-0.025,0.008,-0.021,101.0,103.0,100.0,13.3,1505.2,354.2,-0.7,1.8,2471.432,13.29,0.026,287.7
2023-07-27T04:25:03,42.805,6.029,0.013,0.006,-0.013,102.0,102.0,102.0,13.3,1505.2,342.3,-0.7,1.8,2471.406,13.29,0.014,65.2
2023-07-27T04:28:03,42.805,6.029,0.011,-0.001,-0.033,102.0,102.0,101.0,13.4,1505.2,330.7,-0.7,1.8,2471.377,13.29,0.011,95.2
2023-07-27T04:31:03,42.805,6.029,-0.006,0.004,-0.028,103.0,101.0,101.0,13.4,1505.2,352.0,-0.8,1.8,2471.409,13.29,0.007,303.7
2023-07-27T04:34:03,42.805,6.029,0.0,0.0,-0.025,102.0,103.0,101.0,13.3,1505.2,324.5,-0.8,1.8,2471.39,13.29,0.0,0.0
2023-07-27T04:37:03,42.805,6.029,0.011,0.027,-0.009,102.0,102.0,102.0,13.3,1505.2,331.1,-0.8,1.8,2471.379,13.29,0.029,22.2
2023-07-27T04:40:03,42.805,6.029,0.001,0.007,-0.023,102.0,103.0,101.0,13.4,1505.2,350.3,-0.8,1.8,2471.406,13.29,0.007,8.1
2023-07-27T04:43:03,42.805,6.029,-0.009,0.014,-0.019,103.0,101.0,101.0,13.3,1505.2,322.2,-0.8,1.8,2471.38,13.29,0.016,327.3
2023-07-27T04:46:03,42.805,6.029,0.004,-0.001,-0.04,102.0,103.0,101.0,13.4,1505.2,346.7,-0.7,1.8,2471.354,13.29,0.004,104.0
2023-07-27T04:49:03,42.805,6.029,0.001,0.008,-0.034,102.0,101.0,102.0,13.4,1505.2,340.2,-0.8,1.8,2471.404,13.29,0.008,7.1
2023-07-27T04:52:03,42.805,6.029,0.0,0.004,-0.042,102.0,102.0,101.0,13.3,1505.2,327.9,-0.8,1.8,2471.347,13.29,0.004,0.0
2023-07-27T04:55:03,42.805,6.029,-0.004,-0.006,-0.07,103.0,101.0,101.0,13.4,1505.2,341.8,-0.8,1.8,2471.374,13.29,0.007,213.7
2023-07-27T04:58:03,42.805,6.029,0.031,0.011,0.017,102.0,100.0,101.0,13.3,1505.2,326.3,-0.8,1.8,2471.4,13.29,0.032,70.5
2023-07-27T05:04:03,42.805,6.029,-0.016,-0.015,-0.078,101.0,102.0,102.0,13.4,1505.2,330.1,-0.8,1.8,2471.405,13.28,0.021,226.9
2023-07-27T05:07:03,42.805,6.029,0.016,-0.001,-0.006,102.0,102.0,100.0,13.4,1505.2,341.5,-0.8,1.8,2471.407,13.29,0.016,93.6
2023-07-27T05:10:03,42.805,6.029,0.021,-0.003,-0.02,103.0,102.0,101.0,13.4,1505.2,334.6,-0.8,1.8,2471.392,13.29,0.021,98.1
2023-07-27T05:13:03,42.805,6.029,-0.001,0.016,-0.019,102.0,103.0,101.0,13.4,1505.2,341.5,-0.8,1.8,2471.411,13.29,0.016,356.4
2023-07-27T05:16:03,42.805,6.029,0.002,0.004,-0.02,101.0,102.0,102.0,13.4,1505.2,348.9,-0.8,1.8,2471.412,13.29,0.004,26.6
2023-07-27T05:19:03,42.805,6.029,0.004,0.011,-0.02,103.0,102.0,102.0,13.3,1505.2,338.6,-0.8,1.8,2471.411,13.29,0.011,20.0
2023-07-27T05:22:03,42.805,6.029,0.001,0.005,-0.028,102.0,102.0,100.0,13.4,1505.2,350.3,-0.7,1.8,2471.341,13.29,0.005,11.3
2023-07-27T05:25:03,42.805,6.029,0.004,0.005,-0.034,102.0,101.0,100.0,13.4,1505.2,329.3,-0.8,1.8,2471.35,13.29,0.006,38.7
2023-07-27T05:28:03,42.805,6.029,-0.027,-0.01,-0.058,101.0,103.0,100.0,13.4,1505.2,336.1,-0.8,1.8,2471.414,13.29,0.028,249.7
2023-07-27T05:31:03,42.805,6.029,0.011,0.0,-0.019,103.0,103.0,100.0,13.4,1505.2,328.8,-0.8,1.8,2471.382,13.29,0.011,90.0
2023-07-27T05:34:03,42.805,6.029,0.005,0.001,-0.02,104.0,102.0,101.0,13.3,1505.2,346.4,-0.7,1.8,2471.353,13.29,0.005,78.7
2023-07-27T05:37:03,42.805,6.029,0.0,0.0,-0.016,103.0,101.0,101.0,13.4,1505.2,334.4,-0.8,1.8,2471.362,13.29,0.0,0.0
2023-07-27T05:40:03,42.805,6.029,0.006,-0.005,-0.044,101.0,102.0,102.0,13.3,1505.2,354.2,-0.7,1.8,2471.411,13.29,0.007,129.8
2023-07-27T05:43:03,42.805,6.029,0.017,-0.051,-0.099,103.0,100.0,100.0,13.3,1505.2,341.1,-0.8,1.8,2471.372,13.29,0.053,161.6
2023-07-27T05:46:03,42.805,6.029,-0.009,-0.014,-0.086,102.0,101.0,100.0,13.3,1505.2,328.8,-0.8,1.8,2471.375,13.29,0.016,212.7
2023-07-27T05:49:03,42.805,6.029,-0.023,0.026,-0.029,102.0,102.0,101.0,13.3,1505.2,341.9,-0.7,1.8,2471.397,13.29,0.034,318.5
2023-07-27T05:52:03,42.805,6.029,0.008,-0.003,-0.028,102.0,102.0,101.0,13.4,1505.2,323.4,-0.8,1.8,2471.347,13.29,0.008,110.6
2023-07-27T05:55:03,42.805,6.029,0.026,0.01,-0.026,102.0,101.0,101.0,13.4,1505.2,331.7,-0.8,1.8,2471.382,13.29,0.027,69.0
2023-07-27T05:58:03,42.805,6.029,-0.011,-0.019,-0.053,102.0,102.0,102.0,13.4,1505.2,346.5,-0.8,1.8,2471.349,13.29,0.021,210.1
2023-07-27T06:04:03,42.805,6.029,0.012,-0.017,-0.014,103.0,101.0,101.0,13.4,1505.2,339.3,-0.8,1.8,2471.398,13.28,0.02,144.8
2023-07-27T06:07:03,42.805,6.029,-0.013,0.012,-0.031,101.0,102.0,100.0,13.3,1505.2,340.0,-0.8,1.8,2471.412,13.29,0.017,312.7
2023-07-27T06:10:03,42.805,6.029,0.001,0.006,-0.033,102.0,101.0,101.0,13.4,1505.2,350.3,-0.7,1.8,2471.394,13.29,0.006,9.5
2023-07-27T06:13:03,42.805,6.029,0.008,0.001,-0.049,101.0,102.0,102.0,13.4,1505.2,333.4,-0.7,1.8,2471.391,13.29,0.008,82.9
2023-07-27T06:16:03,42.805,6.029,0.001,-0.003,-0.038,103.0,102.0,101.0,13.4,1505.2,336.9,-0.8,1.8,2471.37,13.29,0.003,161.6
2023-07-27T06:19:03,42.805,6.029,0.027,-0.012,-0.02,103.0,103.0,100.0,13.4,1505.2,340.7,-0.7,1.8,2471.378,13.29,0.029,114.0
2023-07-27T06:22:03,42.805,6.029,0.01,-0.006,-0.02,102.0,103.0,100.0,13.3,1505.2,329.9,-0.8,1.8,2471.378,13.29,0.011,121.0
2023-07-27T06:25:03,42.805,6.029,0.003,-0.003,-0.031,102.0,101.0,101.0,13.4,1505.2,322.9,-0.8,1.8,2471.359,13.29,0.004,135.0
2023-07-27T06:28:03,42.805,6.029,-0.001,-0.002,-0.032,102.0,102.0,101.0,13.3,1505.2,326.0,-0.7,1.8,2471.365,13.29,0.002,206.6
2023-07-27T06:31:03,42.805,6.029,-0.035,0.038,0.015,102.0,102.0,101.0,13.4,1505.2,330.9,-0.8,1.8,2471.378,13.29,0.051,317.4
2023-07-27T06:34:03,42.805,6.029,0.0,-0.002,-0.055,101.0,103.0,101.0,13.4,1505.2,325.5,-0.8,1.8,2471.36,13.29,0.002,180.0
2023-07-27T06:37:03,42.805,6.029,-0.002,-0.02,-0.066,101.0,101.0,101.0,13.4,1505.2,336.5,-0.8,1.8,2471.349,13.29,0.02,185.7
2023-07-27T06:40:03,42.805,6.029,0.004,0.022,-0.013,101.0,101.0,100.0,13.3,1505.2,343.3,-0.8,1.8,2471.367,13.29,0.022,10.3
2023-07-27T06:43:03,42.805,6.029,-0.01,-0.001,-0.016,102.0,102.0,101.0,13.3,1505.2,354.1,-0.8,1.9,2471.349,13.29,0.01,264.3
2023-07-27T06:46:03,42.805,6.029,-0.005,-0.01,-0.065,102.0,103.0,100.0,13.3,1505.2,324.0,-0.7,1.8,2471.383,13.29,0.011,206.6
2023-07-27T06:49:03,42.805,6.029,-0.014,0.003,-0.056,102.0,101.0,101.0,13.3,1505.2,330.7,-0.8,1.8,2471.371,13.29,0.014,282.1
2023-07-27T06:52:03,42.805,6.029,0.012,-0.02,-0.052,103.0,103.0,100.0,13.4,1505.2,332.4,-0.8,1.8,2471.354,13.29,0.023,149.0
2023-07-27T06:55:03,42.805,6.029,-0.016,0.0,-0.045,101.0,102.0,101.0,13.4,1505.2,323.5,-0.8,1.8,2471.358,13.29,0.016,270.0
2023-07-27T06:58:03,42.805,6.029,0.008,0.013,-0.033,104.0,102.0,101.0,13.4,1505.2,324.2,-0.8,1.8,2471.356,13.29,0.015,31.6
2023-07-27T07:04:03,42.805,6.029,-0.015,-0.007,-0.033,102.0,102.0,101.0,13.4,1505.2,332.6,-0.8,1.8,2471.426,13.28,0.016,245.0
2023-07-27T07:07:03,42.805,6.029,-0.014,-0.004,-0.068,102.0,101.0,101.0,13.4,1505.2,336.4,-0.8,1.9,2471.384,13.29,0.014,254.1
2023-07-27T07:10:03,42.805,6.029,-0.005,-0.001,-0.028,103.0,101.0,101.0,13.3,1505.2,332.9,-0.8,1.8,2471.369,13.29,0.005,258.7
2023-07-27T07:13:03,42.805,6.029,0.006,0.002,0.0,102.0,102.0,101.0,13.4,1505.2,343.8,-0.7,1.8,2471.374,13.29,0.006,71.6
2023-07-27T07:16:03,42.805,6.029,0.001,-0.008,-0.034,101.0,103.0,101.0,13.4,1505.2,336.1,-0.8,1.8,2471.368,13.29,0.008,172.9
2023-07-27T07:19:03,42.805,6.029,-0.013,0.002,-0.033,101.0,103.0,101.0,13.4,1505.2,339.5,-0.8,1.8,2471.323,13.29,0.013,278.7
2023-07-27T07:22:03,42.805,6.029,-0.007,-0.012,-0.05,101.0,102.0,101.0,13.3,1505.2,324.7,-0.8,1.8,2471.336,13.29,0.013,210.3
2023-07-27T07:25:03,42.805,6.029,0.023,-0.005,-0.04,102.0,101.0,101.0,13.3,1505.2,329.5,-0.8,1.8,2471.346,13.29,0.023,102.3
2023-07-27T07:28:03,42.805,6.029,-0.011,0.004,-0.037,102.0,102.0,101.0,13.4,1505.2,340.1,-0.8,1.8,2471.322,13.29,0.011,290.0
2023-07-27T07:31:03,42.805,6.029,0.005,-0.009,-0.056,102.0,101.0,101.0,13.4,1505.2,347.8,-0.8,1.8,2471.349,13.29,0.01,150.9
2023-07-27T07:34:03,42.805,6.029,0.0,-0.002,-0.035,103.0,102.0,101.0,13.4,1505.2,328.3,-0.8,1.8,2471.351,13.29,0.002,180.0
2023-07-27T07:37:03,42.805,6.029,-0.002,0.006,-0.009,101.0,102.0,101.0,13.4,1505.2,337.4,-0.8,1.8,2471.328,13.29,0.006,341.6
2023-07-27T07:40:03,42.805,6.029,0.015,0.005,-0.011,101.0,101.0,102.0,13.4,1505.2,339.7,-0.8,1.8,2471.363,13.29,0.015,71.6
2023-07-27T07:43:03,42.805,6.029,-0.001,0.0,-0.018,102.0,102.0,101.0,13.3,1505.2,326.3,-0.8,1.8,2471.345,13.29,0.001,270.0
2023-07-27T07:46:03,42.805,6.029,-0.007,-0.006,-0.027,101.0,102.0,101.0,13.4,1505.2,338.4,-0.7,1.8,2471.317,13.29,0.009,229.4
2023-07-27T07:49:03,42.805,6.029,-0.019,-0.016,-0.054,102.0,102.0,99.0,13.3,1505.2,344.0,-0.8,1.8,2471.367,13.29,0.024,229.9
2023-07-27T07:52:03,42.805,6.029,0.005,-0.005,0.011,101.0,103.0,101.0,13.4,1505.2,342.8,-0.8,1.8,2471.342,13.29,0.007,135.0
2023-07-27T07:55:03,42.805,6.029,0.021,-0.03,-0.059,102.0,102.0,102.0,13.4,1505.2,328.3,-0.7,1.8,2471.315,13.29,0.036,145.0
2023-07-27T07:58:03,42.805,6.029,-0.017,0.02,-0.024,102.0,101.0,101.0,13.4,1505.2,342.2,-0.8,1.8,2471.329,13.29,0.026,319.6
2023-07-27T08:04:03,42.805,6.029,-0.009,-0.003,-0.037,101.0,102.0,101.0,13.3,1505.2,339.8,-0.8,1.8,2471.428,13.28,0.009,251.6
2023-07-27T08:07:03,42.805,6.029,0.019,-0.001,-0.02,102.0,101.0,100.0,13.4,1505.2,340.6,-0.7,1.8,2471.394,13.29,0.019,93.0
2023-07-27T08:10:03,42.805,6.029,0.007,0.001,-0.042,103.0,101.0,100.0,13.3,1505.2,339.5,-0.8,1.8,2471.36,13.29,0.007,81.9
2023-07-27T08:13:03,42.805,6.029,0.005,-0.019,-0.057,102.0,103.0,101.0,13.4,1505.2,354.4,-0.8,1.8,2471.34,13.29,0.019,165.3
2023-07-27T08:16:03,42.805,6.029,-0.016,-0.006,-0.057,103.0,101.0,100.0,13.3,1505.2,344.7,-0.8,1.8,2471.325,13.29,0.017,249.4
2023-07-27T08:19:03,42.805,6.029,-0.023,0.012,-0.046,103.0,102.0,100.0,13.4,1505.2,331.9,-0.8,1.8,2471.339,13.29,0.025,297.6
2023-07-27T08:22:03,42.805,6.029,-0.008,-0.007,-0.028,102.0,102.0,101.0,13.4,1505.2,336.0,-0.8,1.8,2471.337,13.29,0.01,228.8
2023-07-27T08:25:03,42.805,6.029,0.01,-0.009,-0.042,101.0,101.0,101.0,13.3,1505.2,325.3,-0.8,1.8,2471.314,13.29,0.013,132.0
2023-07-27T08:28:03,42.805,6.029,-0.014,0.006,-0.044,102.0,102.0,101.0,13.3,1505.2,333.4,-0.8,1.8,2471.33,13.29,0.015,293.2
2023-07-27T08:31:03,42.805,6.029,-0.011,-0.012,-0.027,102.0,101.0,102.0,13.3,1505.2,338.0,-0.7,1.8,2471.315,13.29,0.016,222.5
2023-07-27T08:34:03,42.805,6.029,0.001,0.015,0.018,101.0,102.0,101.0,13.4,1505.2,334.4,-0.8,1.8,2471.338,13.29,0.015,3.8
2023-07-27T08:37:03,42.805,6.029,-0.027,0.009,-0.039,100.0,102.0,102.0,13.3,1505.2,333.9,-0.8,1.8,2471.316,13.29,0.028,288.4
2023-07-27T08:40:03,42.805,6.029,-0.008,-0.012,-0.051,102.0,102.0,101.0,13.4,1505.2,332.1,-0.8,1.8,2471.343,13.29,0.014,213.7
2023-07-27T08:43:03,42.805,6.029,0.005,-0.022,-0.038,102.0,101.0,102.0,13.3,1505.2,353.2,-0.8,1.8,2471.308,13.29,0.022,167.2
2023-07-27T08:46:03,42.805,6.029,-0.02,-0.007,-0.054,102.0,101.0,101.0,13.3,1505.2,341.1,-0.7,1.8,2471.338,13.29,0.021,250.7
2023-07-27T08:49:03,42.805,6.029,0.012,0.002,0.0,102.0,102.0,101.0,13.3,1505.2,339.1,-0.7,1.8,2471.337,13.29,0.012,80.5
2023-07-27T08:52:03,42.805,6.029,-0.001,-0.004,-0.023,102.0,102.0,101.0,13.3,1505.2,328.4,-0.8,1.8,2471.345,13.29,0.004,194.0
2023-07-27T08:55:03,42.805,6.029,0.001,-0.02,-0.02,102.0,102.0,106.0,13.4,1505.2,343.8,-0.7,1.8,2471.347,13.29,0.02,177.1
2023-07-27T08:58:03,42.805,6.029,-0.005,-0.005,-0.074,102.0,102.0,101.0,13.4,1505.2,330.6,-0.8,1.8,2471.32,13.29,0.007,225.0
2023-07-27T09:04:03,42.805,6.029,-0.013,-0.009,-0.04,103.0,100.0,101.0,13.4,1505.2,332.0,-0.7,1.8,2471.392,13.28,0.015,235.3
2023-07-27T09:07:03,42.805,6.029,0.022,-0.025,-0.03,103.0,102.0,101.0,13.3,1505.2,351.8,-0.7,1.8,2471.41,13.28,0.033,138.7
2023-07-27T09:10:03,42.805,6.029,0.015,-0.02,-0.037,101.0,103.0,101.0,13.3,1505.2,336.1,-0.8,1.8,2471.391,13.29,0.025,143.1
2023-07-27T09:13:03,42.805,6.029,-0.021,0.002,-0.045,101.0,101.0,101.0,13.3,1505.2,349.1,-0.8,1.8,2471.358,13.29,0.021,275.4
2023-07-27T09:16:03,42.805,6.029,0.001,-0.005,-0.057,102.0,102.0,101.0,13.4,1505.2,337.7,-0.8,1.8,2471.344,13.29,0.005,168.7
2023-07-27T09:19:03,42.805,6.029,0.004,0.001,-0.036,102.0,101.0,101.0,13.3,1505.2,336.1,-0.8,1.8,2471.366,13.29,0.004,76.0
2023-07-27T09:22:03,42.805,6.029,0.001,-0.015,-0.021,102.0,102.0,102.0,13.4,1505.2,347.0,-0.7,1.8,2471.402,13.29,0.015,176.2
2023-07-27T09:25:03,42.805,6.029,0.009,-0.021,-0.036,102.0,102.0,101.0,13.4,1505.2,331.6,-0.8,1.8,2471.355,13.29,0.022,156.8
2023-07-27T09:28:03,42.805,6.029,-0.001,-0.006,-0.047,102.0,102.0,101.0,13.3,1505.2,338.2,-0.8,1.8,2471.374,13.29,0.006,189.5
2023-07-27T09:31:03,42.805,6.029,-0.012,0.008,-0.052,102.0,102.0,101.0,13.4,1505.2,332.9,-0.7,1.8,2471.364,13.29,0.014,303.7
2023-07-27T09:34:03,42.805,6.029,0.007,-0.009,0.001,103.0,102.0,101.0,13.4,1505.2,332.5,-0.7,1.8,2471.366,13.29,0.011,142.1
2023-07-27T09:37:03,42.805,6.029,-0.014,-0.009,-0.046,102.0,103.0,101.0,13.4,1505.2,332.9,-0.8,1.9,2471.341,13.29,0.016,237.3
2023-07-27T09:40:03,42.805,6.029,-0.008,-0.004,-0.036,102.0,102.0,100.0,13.4,1505.2,335.0,-0.8,1.8,2471.385,13.29,0.008,243.4
2023-07-27T09:43:03,42.805,6.029,0.002,0.0,-0.014,102.0,102.0,101.0,13.4,1505.2,345.6,-0.8,1.8,2471.38,13.29,0.002,90.0
2023-07-27T09:46:03,42.805,6.029,-0.008,-0.013,-0.059,103.0,101.0,102.0,13.3,1505.2,351.7,-0.7,1.8,2471.329,13.29,0.015,211.6
2023-07-27T09:49:03,42.805,6.029,-0.001,0.001,-0.015,103.0,102.0,101.0,13.4,1505.2,324.1,-0.8,1.8,2471.334,13.29,0.001,315.0
2023-07-27T09:52:03,42.805,6.029,0.009,-0.037,-0.048,101.0,103.0,101.0,13.3,1505.2,333.9,-0.7,1.8,2471.351,13.29,0.038,166.3
2023-07-27T09:55:03,42.805,6.029,-0.017,0.003,-0.052,102.0,101.0,101.0,13.4,1505.2,351.8,-0.8,1.8,2471.338,13.29,0.017,280.0
2023-07-27T09:58:03,42.805,6.029,0.019,-0.003,-0.013,102.0,101.0,101.0,13.4,1505.2,340.0,-0.8,1.8,2471.345,13.29,0.019,99.0